Header for Extended Forecast Station List Page

Search by: ID | Name | Date | Parm | Value | Avg | % Avg
Sort by: ID | Name | Date | Parm | Value | Avg | % Avg

Enter search or view all records.

Click on id for station plot
#IDNameDateParmValueAvg% Avg
0BULO3BULLY CREEK-BULLY CREEK DAM03-04-2024INFLOW (KAF)274707
1MYKO3MCKAY CREEK-NEAR PILOT ROCK03-04-2024DISCHARGE (KAF)3635105
2RIDI1WILLOW CREEK-RIRIE DAM03-04-2024INFLOW (KAF)11539291
3BERO3MALHEUR-AGENCY VALLEY DAM03-04-2024INFLOW (KAF)7251140
4MILI1SNAKE-AT MILNER03-04-2024DISCHARGE (KAF)M54M
5LWRI1LITTLE WOOD-LITTLE WOOD DAM03-04-2024INFLOW (KAF)7455136
6PIHI1PORTNEUF-AT POCATELLO03-04-2024DISCHARGE (KAF)16069230
7WRMO3MALHEUR-WARM SPRINGS DAM03-04-2024INFLOW (KAF)13476177
8MACI1BIG LOST-MACKAY RESERVOIR NEAR MACKAY03-04-2024INFLOW (KAF)13279168
9DLGM8CLARK FORK-AT DEER LODGE03-04-2024DISCHARGE (KAF)658082
10GIBO3UMATILLA-NEAR GIBBON03-04-2024DISCHARGE (KAF)9083108
11EASW1YAKIMA-AT EASTON03-04-2024DISCHARGE (KAF)879889
12KADW1KACHESS-KACHESS DAM03-04-2024INFLOW (KAF)9610095
13BUDW1BUMPING-BUMPING LAKE DAM03-04-2024INFLOW (KAF)111100111
14KEDW1YAKIMA-KEECHELUS LAKE03-04-2024INFLOW (KAF)10310895
15DEDI1DEADWOOD-NEAR LOWMAN03-04-2024INFLOW (KAF)121108113
16HWRI1BIG LOST-AT HOWELL RANCH NEAR CHILLY03-04-2024DISCHARGE (KAF)152110138
17TNAW1TEANAWAY-BELOW FORKS03-04-2024DISCHARGE (KAF)145132110
18SATI1ST MARIES-NEAR SANTA03-04-2024DISCHARGE (KAF)145133109
19HOTI1BRUNEAU-NEAR HOT SPRINGS03-04-2024DISCHARGE (KAF)293153191
20UMAO3UMATILLA-NEAR UMATILLA03-04-2024DISCHARGE (KAF)164156105
21ARDW1ENTIAT-NEAR ARDENVOIR03-04-2024DISCHARGE (KAF)14916292
22MAGI1BIG WOOD-MAGIC DAM03-04-2024INFLOW (KAF)223166135
23RILW1TIETON-RIMROCK LAKE NEAR RIMROCK03-04-2024INFLOW (KAF)16116796
24IPDI1HENRYS FORK-ISLAND PARK DAM03-04-2024INFLOW (KAF)16817099
25HALI1BIG WOOD-AT HAILEY03-04-2024DISCHARGE (KAF)202172118
26PDTO3UMATILLA-AT PENDLETON03-04-2024DISCHARGE (KAF)193173111
27TCHW1WALLA WALLA-NEAR TOUCHET03-04-2024DISCHARGE (KAF)182180101
28RCCM8ROCK CREEK-NEAR CLINTON03-04-2024DISCHARGE (KAF)15921873
29DRMM8CLARK FORK-NR DRUMMOND03-04-2024DISCHARGE (KAF)19522786
30BIGI1BOISE-AT GLENWOOD BRIDGE03-04-2024DISCHARGE (KAF)508235216
31HODO3HOOD-NEAR TUCKER BRIDGE03-04-2024DISCHARGE (KAF)298244122
32STRM8ST. REGIS-NEAR ST. REGIS03-04-2024DISCHARGE (KAF)23724697
33PARI1BOISE-NEAR PARMA03-04-2024DISCHARGE (KAF)524257204
34OWYO3OWYHEE-OWYHEE DAM03-04-2024INFLOW (KAF)581261223
35TEAI1TETON-NEAR ST. ANTHONY03-04-2024DISCHARGE (KAF)388304128
36CHEI1FALL RIVER-NEAR CHESTER03-04-2024DISCHARGE (KAF)363311116
37UNDW1WHITE SALMON-NEAR UNDERWOOD03-04-2024DISCHARGE (KAF)352329107
38CLUW1CLE ELUM-CLE ELUM LAKE03-04-2024INFLOW (KAF)358336107
39CLFW1NACHES-NEAR CLIFFDEL03-04-2024DISCHARGE (KAF)347347100
40ARAI1SF BOISE-ANDERSON RANCH DAM03-04-2024INFLOW (KAF)488392124
41WSRI1WEISER-NEAR WEISER03-04-2024DISCHARGE (KAF)413405102
42CSDI1NF PAYETTE-CASCADE DAM03-04-2024INFLOW (KAF)40245489
43PITW1KLICKITAT-NEAR PITT03-04-2024DISCHARGE (KAF)566490116
44NACW1NACHES-NEAR NACHES03-04-2024DISCHARGE (KAF)51051699
45MONO3NF JOHN DAY-AT MONUMENT03-04-2024DISCHARGE (KAF)732589124
46ANTI1HENRYS FORK-AT ST. ANTHONY03-04-2024DISCHARGE (KAF)657593111
47JLKW4SNAKE-JACKSON LAKE AT DAM03-04-2024INFLOW (KAF)704627112
48PARW1YAKIMA-NEAR PARKER03-04-2024DISCHARGE (KAF)52866679
49BONM8BLACKFOOT-NEAR BONNER03-04-2024DISCHARGE (KAF)44767366
50UMTW1YAKIMA-AT UMTANUM03-04-2024DISCHARGE (KAF)63767395
51REXI1HENRYS FORK-AT REXBURG03-04-2024DISCHARGE (KAF)834697120
52PATW1METHOW-NEAR PATEROS03-04-2024DISCHARGE (KAF)57374477
53PRTI1PRIEST-NEAR PRIEST RIVER03-04-2024DISCHARGE (KAF)886754117
54CHDW1CHELAN-LAKE CHELAN DAM03-04-2024INFLOW (KAF)59984171
55SERO3JOHN DAY-AT SERVICE CK03-04-2024DISCHARGE (KAF)1079841128
56LUCI1BOISE-LUCKY PEAK DAM03-04-2024INFLOW (KAF)1200983122
57KIOW1YAKIMA-AT KIONA03-04-2024DISCHARGE (KAF)845100584
58BITM8BITTERROOT-NEAR MISSOULA03-04-2024DISCHARGE (KAF)815102579
59BFTI1SNAKE-NEAR BLACKFOOT03-04-2024DISCHARGE (KAF)21081112190
60SNAI1SNAKE-AT BLACKFOOT03-04-2024DISCHARGE (KAF)21461127190
61EMMI1PAYETTE-NEAR EMMETT03-04-2024DISCHARGE (KAF)1036113292
62ABOM8CLARK FORK-ABOVE MISSOULA03-04-2024DISCHARGE (KAF)833118670
63PESW1WENATCHEE-AT PESHASTIN03-04-2024DISCHARGE (KAF)1047119588
64JKSW4SNAKE-NEAR JACKSON03-04-2024DISCHARGE (KAF)12671205105
65WGCM8MF FLATHEAD-NEAR WEST GLACIER03-04-2024DISCHARGE (KAF)1032128380
66TRYO3GRANDE RONDE-TROY03-04-2024DISCHARGE (KAF)13311319101
67FCFM8NF FLATHEAD-NEAR COLUMBIA FALLS03-04-2024DISCHARGE (KAF)991133274
68TONW1OKANOGAN-NEAR TONASKET03-04-2024DISCHARGE (KAF)921133969
69MODO3DESCHUTES-AT MOODY NR BIGGS03-04-2024DISCHARGE (KAF)14501387104
70ALPW4SNAKE-NEAR ALPINE03-04-2024DISCHARGE (KAF)16091549104
71SHYI1SNAKE-NEAR SHELLEY03-04-2024DISCHARGE (KAF)25081602157
72LAUW1KETTLE-AT LAURIER03-04-2024DISCHARGE (KAF)17651656107
73HHWM8SF FLATHEAD-HUNGRY HORSE DAM03-04-2024INFLOW (KAF)1410168484
74SIFI1SNAKE-AB EAGLE ROCK NR IDAHO FALLS03-04-2024DISCHARGE (KAF)26331728152
75AFRI1SNAKE-AMERICAN FALLS RESERVOIR03-04-2024INFLOW (KAF)28291749162
76SWAI1SNAKE-BELOW SWAN FALLS03-04-2024DISCHARGE (KAF)19571854106
77HEII1SNAKE-NEAR HEISE03-04-2024DISCHARGE (KAF)26612110126
78BELM8CLARK FORK-BELOW MISSOULA03-04-2024DISCHARGE (KAF)1648225773
79PLDI1SF SNAKE-PALISADES DAM03-04-2024INFLOW (KAF)25202261111
80DWRI1NF CLEARWATER-DWORSHAK DAM03-04-2024INFLOW (KAF)2193247489
81COEI1COEUR D ALENE-COEUR D ALENE LAKE03-04-2024INFLOW (KAF)2398257993
82SPOW1SPOKANE-AT SPOKANE03-04-2024DISCHARGE (KAF)2322261389
83LLKW1SPOKANE-AT LONGLAKE03-04-2024INFLOW (KAF)2624292590
84SRGM8CLARK FORK-AT ST REGIS03-04-2024DISCHARGE (KAF)2217298374
85CFMM8FLATHEAD-AT COLUMBIA FALLS03-04-2024DISCHARGE (KAF)2967364581
86LEOI1KOOTENAI-AT LEONIA03-04-2024DISCHARGE (KAF)37883714102
87WEII1SNAKE-AT WEISER03-04-2024DISCHARGE (KAF)44583985112
88ORFI1CLEARWATER-AT OROFINO03-04-2024DISCHARGE (KAF)3811418591
89LYDM8KOOTENAI-LIBBY DAM03-04-2024INFLOW (KAF)3668433985
90BRNI1SNAKE-BROWNLEE DAM03-04-2024INFLOW (KAF)50324468113
91KERM8FLATHEAD-SELI’Š KSANKA QLISPE’ DAM03-04-2024INFLOW (KAF)3558450579
92WHBI1SALMON-AT WHITEBIRD03-04-2024DISCHARGE (KAF)4424489890
93SPDI1CLEARWATER-AT SPALDING03-04-2024DISCHARGE (KAF)5158606585
94NOXM8CLARK FORK-NOXON RAPIDS DAM03-04-2024INFLOW (KAF)5398742373
95CABI1CLARK FORK-CABINET GORGE DAM03-04-2024INFLOW (KAF)5961826872
96ALFW1PEND OREILLE-ALBENI FALLS DAM03-04-2024INFLOW (KAF)7634958480
97ANAW1SNAKE-NEAR ANATONE03-04-2024DISCHARGE (KAF)106491195589
98LGDW1SNAKE-LOWER GRANITE DAM03-04-2024INFLOW (KAF)158081858985
99LGSW1SNAKE-LITTLE GOOSE DAM03-04-2024INFLOW (KAF)158081862185
100LMNW1SNAKE-LOWER MONUMENTAL DAM03-04-2024INFLOW (KAF)159441872685
101IHDW1SNAKE-ICE HARBOR DAM03-04-2024INFLOW (KAF)159441873085
102CIBW1COLUMBIA-AT INTL BOUNDARY03-04-2024DISCHARGE (KAF)204772605979
103CHJW1COLUMBIA-CHIEF JOSEPH DAM03-04-2024INFLOW (KAF)237642885782
104GCDW1COLUMBIA-GRAND COULEE DAM03-04-2024INFLOW (KAF)250142944785
105WELW1COLUMBIA-WELLS DAM03-04-2024INFLOW (KAF)252513114581
106RRHW1COLUMBIA-ROCKY REACH DAM03-04-2024INFLOW (KAF)257093199380
107WANW1COLUMBIA-WANAPUM DAM03-04-2024INFLOW (KAF)267553340780
108PRWW1COLUMBIA-PRIEST RAPIDS DAM03-04-2024INFLOW (KAF)267493346080
109MCDW1COLUMBIA-MCNARY DAM03-04-2024INFLOW (KAF)436255365381
110JDAO3COLUMBIA-JOHN DAY DAM03-04-2024INFLOW (KAF)461625538483
111TDAO3COLUMBIA-THE DALLES DAM03-04-2024INFLOW (KAF)466195579384
112BONO3COLUMBIA-BONNEVILLE DAM03-04-2024INFLOW (KAF)478285791283
113BFEI1KOOTENAI-AT BONNERS FERRY03-04-2024STAGE (FT)MMM
114HOPI1PEND OREILLE-LAKE PEND OREILLE NR HOPE03-04-2024LAKE ELEVATION (FT)MMM
115SJMI1ST JOE-AT ST MARIES03-04-2024STAGE (FT)MMM